Wind_Speed
40 41 40 37 36 37 38 37 37 39 41 43 45 47 48 49 51 51 51 51 50 48 46 44 43 42 42 42 42 42 42 40 38 36 35 34 32 31 30 29 28 28 28 30 32 33 33 32 32 32 33 34 35 35 35 36 36 36 36 37 37 38 38 39 40 40 40 41 42 41 40 39 39 39 39 39 40 40 41 41 42 42 43 43 44 44 45
38 39 40 38 36 36 37 37 37 38 38 40 43 45 46 47 49 50 51 51 49 48 46 44 43 42 42 42 42 41 39 36 34 34 34 33 31 31 30 30 29 28 27 27 29 31 32 32 32 33 34 35 36 36 36 36 36 36 36 37 38 38 39 39 40 40 41 42 41 40 40 39 39 39 40 40 40 40 41 41 42 43 43 43 44 44 45
38 37 38 37 37 36 35 36 37 37 37 39 42 44 45 46 47 49 51 51 50 49 46 44 42 41 40 40 39 37 36 34 33 33 32 30 29 29 29 29 29 27 26 26 27 29 31 32 32 33 34 35 36 36 36 36 37 37 37 38 38 39 39 40 40 41 42 41 40 39 39 39 39 40 40 40 40 41 41 41 41 41 42 42 42 43 43
42 39 37 36 36 36 35 34 35 36 37 39 41 43 44 44 45 47 50 51 50 48 46 44 42 39 38 38 37 36 35 35 34 33 31 29 29 28 28 28 28 27 26 25 26 28 30 31 32 33 34 34 35 36 36 37 38 38 38 39 39 39 39 40 41 41 40 39 39 39 39 39 40 40 40 39 39 39 39 39 40 40 41 42 43 44 45
44 39 36 36 37 37 37 36 34 35 37 40 42 43 44 45 45 46 47 48 48 47 45 43 42 40 38 37 37 37 35 34 35 35 33 31 31 30 30 28 27 27 27 26 26 28 29 30 31 31 32 33 35 36 37 38 38 38 38 38 39 39 40 40 39 38 38 38 38 38 39 39 39 39 38 38 38 38 39 39 41 42 43 44 45 46 46
46 41 36 35 37 38 38 38 37 36 36 39 43 44 44 44 44 44 45 46 47 46 44 43 41 39 38 37 37 37 35 34 35 35 33 31 32 33 33 30 28 26 27 27 27 28 29 30 30 31 32 33 34 35 36 37 37 37 38 38 38 38 38 37 37 37 37 37 38 38 39 38 38 37 37 37 38 39 40 41 42 43 44 45 45 46 47
44 42 36 34 35 35 35 36 37 36 35 37 42 44 45 44 43 44 44 44 45 45 44 43 41 40 38 36 35 34 34 34 34 33 31 28 28 30 31 31 29 27 27 28 28 28 29 29 30 31 31 32 33 34 35 35 35 36 36 37 37 36 35 35 35 36 37 37 38 38 38 37 37 37 37 38 39 40 41 41 42 43 43 45 46 47 48
40 40 37 36 36 36 35 34 35 36 35 35 39 43 44 45 45 44 44 43 43 43 43 43 42 41 39 37 35 34 34 34 34 32 30 27 26 25 26 27 27 27 27 28 28 28 28 29 29 30 31 31 32 33 33 34 34 35 34 34 33 33 34 35 35 36 37 38 38 37 37 36 37 37 38 39 39 40 40 41 42 43 44 45 46 47 48
38 40 37 35 37 38 37 34 34 34 34 34 36 39 42 45 46 45 44 44 44 43 42 41 41 41 40 38 37 35 35 34 34 33 31 29 28 27 26 26 26 26 27 28 28 28 29 29 29 30 30 31 31 32 32 33 32 32 31 31 32 33 34 34 35 36 37 37 36 36 36 36 37 37 38 38 39 39 40 41 42 43 44 45 46 47 48
39 41 39 36 36 38 36 34 34 34 34 34 34 37 40 43 44 44 44 44 44 43 43 42 41 41 40 39 38 37 36 35 35 34 32 30 30 29 28 27 27 27 28 28 28 29 29 29 29 29 29 29 30 30 30 30 30 30 30 31 32 33 33 35 36 36 36 35 35 35 35 36 36 36 37 37 38 39 40 41 43 44 45 46 47 48 49
41 42 42 39 38 37 36 35 35 34 35 35 35 36 38 39 41 42 43 43 43 42 42 41 39 38 38 38 39 39 39 39 38 36 33 32 31 31 29 28 28 28 28 27 27 27 28 28 27 27 27 27 28 28 28 28 29 29 30 32 32 33 34 35 35 35 34 33 34 34 34 35 35 35 36 37 38 39 40 42 43 44 46 47 48 49 50
46 44 44 43 41 38 37 37 37 36 36 36 37 36 35 36 40 43 44 43 42 40 39 38 36 36 36 38 39 40 41 41 40 37 34 33 33 31 29 27 27 27 26 26 26 26 26 26 26 26 26 26 27 27 27 28 29 30 31 32 33 33 33 33 33 32 32 32 33 33 33 34 34 35 36 37 38 40 41 42 44 45 46 47 48 49 50
49 47 47 46 45 42 41 40 40 38 38 38 36 34 32 34 39 42 42 42 41 40 39 38 37 37 37 36 36 37 37 38 37 35 34 34 33 29 27 26 25 25 25 25 25 25 25 25 25 26 26 26 26 27 27 28 29 30 31 32 32 32 31 31 31 31 31 32 32 32 32 33 34 35 36 37 39 40 41 42 44 45 46 47 48 48 49
47 47 47 47 47 45 43 42 41 40 40 39 34 32 32 34 35 36 35 36 36 36 36 36 36 36 34 32 31 33 33 34 34 34 34 34 31 27 25 24 24 24 25 25 25 25 25 25 25 26 26 27 27 28 28 29 29 29 30 30 30 29 29 29 30 30 30 30 30 30 31 32 34 35 36 37 39 40 41 42 42 43 44 45 46 46 47
41 42 41 42 43 44 43 42 41 40 40 38 35 34 34 34 33 32 31 30 30 30 31 32 33 33 31 29 30 31 32 33 33 34 34 32 28 25 24 24 24 24 24 24 24 25 25 25 26 26 27 27 28 28 28 28 28 28 28 27 27 27 28 28 29 29 29 29 29 30 32 33 34 35 36 37 38 39 40 40 41 41 42 43 44 44 45
34 35 34 33 35 36 37 37 36 37 38 38 37 36 34 33 34 34 32 31 30 29 28 29 30 30 29 29 30 30 30 31 31 31 29 27 25 25 25 25 25 24 24 24 24 25 25 25 25 26 27 27 27 27 27 26 26 25 25 25 26 26 27 27 27 27 27 29 30 31 32 33 35 35 36 37 37 38 38 38 39 40 40 41 42 43 44
31 32 32 31 31 31 32 32 32 32 33 36 37 37 35 35 35 35 34 34 33 31 29 28 28 29 30 30 29 28 27 27 26 26 25 25 25 25 25 25 25 24 24 24 24 24 24 24 25 26 26 26 25 24 24 23 23 23 24 24 25 25 25 25 26 26 28 29 31 32 33 34 35 35 35 36 36 36 36 37 37 38 39 40 41 42 43
28 29 29 29 29 28 29 31 30 30 30 31 33 35 36 36 35 33 33 32 32 31 30 30 30 29 29 28 27 26 25 24 24 24 25 25 25 25 25 25 25 25 24 24 24 25 24 24 24 24 24 23 22 22 21 22 22 23 24 24 24 24 24 25 25 27 29 30 31 33 33 34 34 34 34 34 34 34 35 35 36 37 37 39 40 41 43
26 26 25 26 26 27 28 29 29 28 28 28 28 30 32 34 34 33 32 31 31 30 30 30 29 28 26 26 26 26 25 23 24 25 25 25 26 27 27 27 26 25 25 25 25 24 24 23 23 23 22 21 21 20 21 21 22 23 23 23 22 22 23 25 26 28 29 30 31 32 33 33 33 33 33 33 32 33 33 34 35 35 36 38 39 41 42
23 23 23 23 23 24 26 27 27 27 27 26 26 26 27 29 31 33 32 31 30 29 29 29 28 27 27 26 26 25 23 23 24 26 28 28 28 28 27 27 26 25 25 25 24 23 23 22 22 21 20 20 20 20 20 21 21 21 21 21 21 22 24 25 27 28 29 30 31 32 32 33 32 32 31 31 30 31 32 33 34 34 36 38 39 40 42
20 20 20 20 21 22 23 24 26 27 27 27 26 25 24 24 27 29 30 30 29 28 28 28 28 28 27 27 26 24 23 23 25 27 28 28 28 27 26 26 26 25 25 24 23 22 22 21 20 19 19 19 19 20 20 20 20 20 19 20 21 23 24 26 27 28 29 30 31 31 32 32 31 30 29 28 29 30 32 32 33 34 35 37 39 41 42
20 20 21 21 22 23 24 24 25 26 27 27 27 25 24 24 25 26 28 29 29 29 29 29 29 28 28 26 25 25 25 26 27 26 26 26 26 26 26 26 25 24 24 23 22 21 20 19 19 19 19 19 19 19 19 18 18 18 19 20 21 23 24 25 27 28 29 29 30 30 30 30 29 28 27 27 28 30 31 32 33 34 35 36 38 40 42
22 24 25 25 23 23 23 24 25 26 27 27 27 26 25 25 25 27 28 28 29 29 29 28 28 27 27 27 26 26 26 26 26 26 26 26 27 26 26 25 25 24 23 22 21 20 19 18 19 19 19 19 18 18 17 17 17 18 19 20 21 23 24 25 26 27 28 29 29 29 28 27 26 25 26 27 28 30 30 31 32 34 35 36 38 40 42
19 20 22 23 23 22 22 23 23 24 24 24 25 25 25 25 26 27 28 28 29 29 28 27 27 26 26 27 27 27 26 25 25 26 27 27 26 25 24 24 24 23 22 21 20 19 18 19 19 19 18 18 17 16 16 17 17 18 19 20 21 23 24 25 26 27 28 28 28 27 26 24 24 24 25 27 28 29 30 31 32 34 35 36 38 40 42
17 17 19 21 22 22 22 22 22 22 22 22 22 23 24 25 25 26 26 27 28 28 28 28 28 28 28 28 27 26 25 25 25 27 27 26 25 24 23 22 22 22 21 20 19 18 19 19 18 18 17 16 15 15 16 16 17 18 19 20 21 22 23 25 26 26 26 27 26 25 24 23 22 23 25 27 28 29 30 31 32 33 35 36 38 40 41
17 17 18 19 22 23 23 22 21 21 22 22 22 22 23 24 25 25 26 27 27 28 28 29 29 30 30 29 27 26 26 26 26 26 25 24 23 23 22 22 21 21 20 19 19 19 19 18 18 17 16 15 14 14 15 16 16 17 18 20 21 22 23 24 25 25 25 24 23 23 22 21 21 22 24 26 28 29 30 31 32 33 34 36 37 39 40
17 16 16 17 20 22 23 22 21 21 21 22 23 23 23 24 25 26 26 27 27 28 28 28 29 29 29 28 27 27 27 27 26 25 24 24 23 23 23 22 21 20 20 19 19 18 18 18 17 16 15 14 13 14 14 15 16 17 18 19 20 21 23 23 24 23 23 22 21 21 20 20 20 22 24 26 27 28 29 30 31 33 34 35 36 38 40
18 17 17 17 18 20 21 22 22 23 23 23 24 25 25 25 25 25 25 25 25 26 26 27 28 28 27 27 27 26 26 26 26 25 24 24 24 23 22 22 21 20 19 19 19 18 18 17 16 15 13 13 13 13 13 14 15 16 17 18 20 21 22 23 23 22 21 21 20 20 20 19 20 22 24 26 27 28 29 30 31 32 34 35 36 38 39
20 20 19 20 21 22 22 22 24 25 25 26 26 26 26 26 26 25 25 25 25 25 26 27 28 28 28 28 27 25 25 26 25 25 24 24 23 23 22 21 21 20 19 19 18 18 18 16 15 13 12 12 12 12 13 14 14 16 17 18 19 20 21 21 21 20 20 19 19 19 19 20 21 23 25 26 27 28 29 30 31 33 34 35 36 37 38
22 22 23 23 24 24 24 25 26 26 26 26 27 27 27 27 26 26 26 26 27 28 28 28 29 28 28 27 26 25 26 27 26 25 25 24 23 23 22 20 19 19 19 19 18 18 17 15 13 12 11 11 11 11 12 13 14 15 16 17 19 19 20 20 19 19 19 18 18 18 19 20 22 24 26 27 28 29 30 30 31 32 34 35 36 36 37
23 24 25 25 26 26 26 26 26 26 26 26 26 26 26 26 26 27 27 28 29 30 30 30 30 29 27 26 26 27 28 28 27 26 25 24 23 22 21 20 20 20 20 19 19 18 16 14 12 12 11 10 11 11 11 12 13 14 16 17 18 19 19 19 18 18 18 17 18 18 19 21 23 25 26 27 29 29 30 30 31 32 33 34 35 36 37
24 25 26 27 27 28 28 27 26 26 26 25 25 24 24 25 26 27 28 30 31 32 32 31 30 29 28 28 28 28 27 26 26 26 25 23 22 22 21 21 21 21 20 20 19 17 15 13 12 11 11 10 10 10 10 11 12 14 16 17 17 18 17 17 17 17 17 17 18 19 20 21 23 25 26 27 28 29 29 30 31 32 33 34 35 35 36
22 23 24 26 27 28 28 29 28 27 26 25 25 25 25 26 27 28 30 31 32 32 31 30 29 29 28 28 28 27 26 25 25 25 24 23 22 22 21 21 21 20 20 19 18 16 14 13 12 11 11 10 10 10 10 10 12 13 15 16 16 16 16 16 16 16 16 17 18 20 21 22 23 25 26 27 28 29 29 30 31 32 33 34 35 35 35
18 20 21 23 25 26 27 28 28 28 27 26 25 25 26 26 28 29 30 30 30 30 29 29 28 28 27 27 27 26 25 24 23 22 22 22 21 21 21 21 21 21 20 19 17 16 15 14 12 11 11 10 10 9 9 9 11 13 14 15 15 15 15 14 14 15 16 17 18 20 22 23 24 25 27 28 29 29 30 30 32 33 34 34 35 35 35
15 16 18 20 22 24 25 25 25 26 27 26 26 26 26 27 28 29 29 29 29 28 28 27 27 27 27 26 26 26 24 22 21 21 22 22 21 21 22 22 21 21 20 18 17 16 15 14 12 11 11 10 10 9 9 9 10 12 13 13 13 13 14 14 14 15 17 18 19 21 23 24 25 26 27 28 29 29 30 31 32 33 33 34 34 35 35
13 14 15 16 18 20 22 23 23 24 25 27 27 27 27 27 28 28 28 28 27 27 26 26 26 26 26 26 26 25 23 22 22 23 23 22 22 22 22 22 22 21 20 19 18 17 16 14 13 12 11 11 10 9 9 8 9 11 12 13 13 13 14 15 16 17 18 19 21 22 25 26 26 27 28 29 29 30 30 31 32 33 33 34 34 34 35
10 11 12 14 16 18 20 21 22 22 23 25 27 27 27 27 27 27 26 26 26 25 25 25 26 27 27 26 26 25 24 24 24 24 23 22 22 22 22 22 22 21 21 19 18 17 16 15 13 12 12 11 11 10 10 9 10 11 12 13 14 14 15 17 18 18 20 21 22 23 25 27 28 28 29 29 30 30 31 31 32 33 33 34 34 34 35
7 8 9 12 13 15 17 19 20 20 20 22 24 26 27 27 26 26 25 25 25 25 25 26 26 27 27 26 25 25 24 24 23 22 21 21 21 22 22 22 23 23 22 21 20 18 17 15 14 14 13 12 12 12 11 11 11 12 13 14 15 16 17 18 19 20 21 22 23 24 25 27 29 29 30 31 31 31 32 32 32 33 34 34 34 34 34
6 6 7 8 9 11 13 15 16 17 17 19 22 24 25 26 26 25 25 25 24 24 25 26 26 26 26 25 24 23 23 22 22 21 21 21 21 22 23 24 24 24 24 22 20 19 17 17 16 15 15 14 14 13 13 13 13 14 15 16 17 18 19 20 21 22 23 24 25 25 26 27 29 30 31 32 32 32 32 33 33 33 34 34 34 34 34
5 5 6 6 7 8 10 12 13 14 15 16 19 21 23 23 23 23 24 24 24 25 25 26 25 24 23 22 22 22 22 22 22 21 21 22 22 23 23 24 25 25 24 22 21 20 19 18 18 17 17 16 16 16 16 16 16 16 17 18 19 19 20 21 22 23 24 25 26 27 27 28 29 30 31 33 33 33 33 34 34 34 34 35 35 34 34
5 5 5 5 6 8 9 11 12 13 13 14 16 18 20 20 20 20 21 22 22 23 23 23 23 23 22 22 22 23 23 23 22 22 22 22 22 23 23 24 25 26 26 25 24 22 21 20 20 20 19 19 18 18 18 18 18 18 19 19 20 21 21 22 23 23 24 26 27 28 28 29 29 30 31 32 34 34 34 34 34 35 35 35 35 35 34
5 5 5 5 5 6 8 10 12 12 13 14 15 16 18 18 18 19 19 20 20 21 22 22 22 23 23 23 23 23 23 22 22 22 22 22 23 23 24 26 27 27 27 27 26 24 23 22 22 22 22 21 21 20 20 20 20 21 21 21 22 22 22 23 24 24 25 26 27 28 29 30 30 31 31 32 33 34 35 35 35 35 35 35 36 36 35
3 4 5 5 5 5 7 9 11 12 13 14 15 16 17 17 18 18 19 20 20 21 21 22 22 22 21 21 21 21 22 22 22 22 22 23 23 24 25 26 27 27 27 27 27 27 26 26 25 25 24 24 23 23 23 23 23 23 23 23 23 24 24 24 25 26 27 27 28 29 30 31 32 32 33 33 33 34 35 35 35 35 36 36 36 36 36
2 2 3 3 4 5 6 7 8 10 12 14 15 15 16 16 17 17 18 20 21 21 22 22 21 21 21 21 21 21 22 23 23 23 24 24 23 24 26 27 27 27 28 29 29 29 29 29 28 27 26 26 25 25 25 25 25 25 25 25 25 26 26 26 27 27 28 28 29 29 30 31 32 33 33 34 34 35 35 35 35 36 36 37 36 36 36
3 3 3 3 4 5 6 6 7 9 11 13 15 16 16 17 17 18 18 20 21 21 22 22 22 22 22 22 22 23 23 24 25 25 25 24 25 26 28 28 29 29 30 30 30 30 30 30 29 29 28 28 27 27 27 27 27 27 27 27 27 27 28 28 28 29 30 30 30 30 31 31 32 33 34 34 35 35 36 36 36 36 37 37 37 37 36
4 4 4 5 5 6 7 8 8 10 12 13 15 16 16 17 18 18 19 20 20 21 21 22 22 22 22 22 23 23 24 25 25 26 26 26 26 27 28 28 28 29 30 30 30 30 30 30 30 30 30 30 30 30 29 30 30 29 29 29 29 29 30 30 30 31 31 31 31 31 32 32 33 33 34 34 35 36 36 36 36 37 37 38 38 38 37
6 6 6 6 6 7 8 9 10 11 13 14 15 15 16 16 17 18 19 19 20 20 20 20 21 21 22 22 23 24 25 25 26 26 26 27 27 28 28 28 29 30 31 32 31 31 31 31 31 31 31 32 32 31 32 32 32 32 31 31 31 31 31 32 32 32 33 32 32 32 33 33 34 34 35 35 35 36 36 37 37 37 37 38 39 39 39
8 8 8 7 8 8 9 10 10 11 12 13 13 14 15 16 17 17 18 18 19 19 20 20 21 22 22 23 24 25 26 26 26 27 27 27 28 28 29 29 30 31 32 32 32 32 31 31 31 31 32 32 33 33 34 34 34 33 33 33 33 33 33 34 34 34 34 33 33 33 34 34 35 35 35 35 36 36 37 37 37 38 38 38 39 39 40
8 8 8 9 10 11 11 12 12 12 12 12 12 13 14 15 16 17 17 18 19 20 20 21 22 22 23 23 24 25 25 25 26 26 27 27 28 28 29 29 29 30 31 31 32 32 32 32 32 32 32 33 33 34 34 35 35 35 35 35 35 35 35 35 35 35 35 34 34 35 35 35 36 36 36 36 37 37 37 37 38 38 38 39 39 40 40
9 9 10 11 12 12 13 13 13 12 12 12 12 12 13 14 15 16 17 18 18 19 19 20 20 21 21 21 22 22 23 23 24 25 26 26 26 27 28 28 29 29 30 30 31 32 33 33 33 33 33 33 34 34 34 35 35 36 36 36 36 36 36 36 36 36 36 35 35 36 37 37 37 37 37 37 38 38 38 38 38 39 39 40 40 40 40
11 12 12 13 13 13 13 12 12 12 12 12 12 13 14 14 15 16 16 17 17 18 18 19 19 19 20 20 20 21 21 21 22 24 24 24 25 26 27 27 28 29 30 31 32 33 33 33 33 33 33 33 33 34 35 35 36 36 36 36 36 37 37 37 37 37 37 37 37 37 38 38 39 38 38 38 39 39 39 39 39 40 40 40 40 40 40
13 13 13 13 13 13 12 12 12 12 12 12 13 14 16 17 17 17 17 18 18 19 19 19 20 20 20 20 21 21 21 21 22 23 24 24 24 25 26 26 27 28 30 31 32 32 33 33 33 34 34 34 34 35 35 35 35 35 36 36 37 37 37 38 38 38 38 38 38 39 39 39 40 39 39 39 40 40 40 40 41 41 41 41 41 41 41
Wind_Direction
203 202 200 201 205 206 206 207 209 209 207 208 212 215 217 220 223 225 228 231 232 233 235 237 239 241 243 246 249 251 253 256 258 260 262 263 263 263 262 261 262 264 264 261 258 257 257 257 256 255 255 255 256 258 260 262 264 266 268 271 274 277 280 283 286 289 292 294 296 297 297 298 298 298 298 298 297 296 296 295 294 294 294 294 294 294 294
201 202 200 200 202 207 209 210 212 214 212 210 211 215 218 221 224 226 228 230 232 234 235 237 239 241 242 245 248 250 253 256 259 262 263 261 261 261 260 260 262 263 264 263 261 259 258 256 256 255 255 255 256 258 261 263 264 267 270 273 277 279 282 285 288 290 293 294 296 297 298 299 300 299 299 299 299 298 297 297 296 296 296 296 296 296 296
201 203 204 203 204 206 210 215 216 217 215 212 211 213 217 221 225 227 229 230 231 233 236 238 240 242 243 245 247 250 254 258 261 263 261 258 259 262 262 261 260 260 261 263 263 261 259 257 256 255 254 255 256 258 261 262 264 267 271 274 278 281 284 286 288 291 293 295 296 298 299 300 300 300 300 300 300 300 299 299 299 299 300 300 300 300 301
202 203 204 205 204 202 206 213 219 219 217 214 211 212 216 221 225 228 230 231 232 233 235 238 240 241 243 246 249 252 256 259 259 258 256 255 258 262 263 261 259 257 260 263 264 262 260 258 256 255 255 256 257 259 260 262 265 268 272 276 279 282 284 287 289 291 294 296 297 299 299 300 300 301 301 301 302 302 302 303 303 303 304 304 304 304 304
203 204 205 206 205 204 207 211 217 220 219 216 214 213 216 221 225 228 231 232 233 234 236 238 239 242 245 249 252 254 256 257 256 255 255 256 259 261 263 265 263 261 262 264 264 262 261 259 257 256 256 257 258 259 261 263 266 270 274 277 280 282 285 288 290 292 295 296 297 298 299 300 301 302 303 303 304 304 305 305 306 306 306 305 305 304 304
204 206 208 208 206 207 211 212 214 217 218 217 216 215 217 220 224 227 230 231 232 234 237 238 240 244 247 250 252 252 252 253 255 257 259 261 261 260 260 264 266 267 266 265 265 264 263 260 258 257 256 257 259 261 263 267 270 273 275 278 280 283 286 289 291 293 295 296 297 299 300 302 303 303 304 305 305 306 306 306 306 306 305 305 304 304 303
204 207 209 209 207 207 209 210 212 215 217 217 218 217 218 220 224 227 229 231 234 236 239 241 243 245 247 249 250 250 250 253 257 260 263 265 265 262 261 262 264 267 267 264 264 264 263 262 260 259 259 260 262 264 267 270 272 274 276 279 282 285 287 290 292 293 294 296 298 300 301 302 303 304 304 305 306 306 305 305 305 304 304 304 304 304 304
206 209 209 210 212 215 215 212 212 216 218 219 219 219 219 220 223 227 229 231 234 237 240 242 244 246 246 247 249 250 253 256 259 261 264 268 270 270 267 265 264 266 265 262 261 262 262 263 263 262 262 263 265 267 269 270 272 275 278 281 284 286 288 290 291 292 295 298 300 301 302 302 303 304 304 304 304 304 304 304 305 305 305 306 306 306 306
211 213 213 212 213 218 220 217 213 214 218 221 223 223 222 221 224 227 230 232 235 237 239 242 245 248 248 247 248 252 255 259 261 262 264 269 273 274 273 269 266 265 263 261 260 260 260 261 261 262 263 264 266 268 269 271 274 277 280 283 285 287 288 290 291 294 297 299 300 300 301 302 303 303 303 303 304 304 305 306 307 307 307 307 307 307 307
215 217 220 219 214 215 218 217 214 214 217 222 225 226 225 224 225 228 231 233 235 237 239 243 247 249 250 249 251 254 257 261 264 265 267 271 273 274 273 269 264 261 261 259 258 258 259 259 260 261 263 265 266 268 270 273 277 280 282 284 286 287 289 291 293 295 297 298 299 300 301 301 302 302 303 304 305 306 307 308 308 308 309 309 309 308 308
218 219 223 224 220 218 218 217 218 221 223 224 226 228 228 226 227 230 232 234 237 239 242 245 248 250 251 252 253 255 257 261 264 266 268 271 273 274 272 266 261 259 258 257 257 257 258 259 260 262 264 266 268 271 274 277 280 282 283 285 286 288 290 292 294 295 296 297 298 299 300 301 302 303 305 306 307 308 308 309 310 310 310 310 309 309 309
216 219 223 225 225 224 223 222 224 228 228 227 226 226 227 227 229 231 233 236 239 243 246 250 252 254 254 253 253 254 255 258 262 264 266 270 273 272 267 262 258 256 255 254 255 257 258 260 263 265 266 269 272 275 278 280 281 282 283 285 287 289 290 292 293 294 295 296 297 299 300 301 303 305 307 308 308 309 310 311 311 311 310 310 310 311 311
216 219 222 224 226 228 228 228 229 230 230 229 226 223 223 226 231 233 234 237 241 244 248 251 253 255 254 252 252 253 254 257 260 262 265 269 270 266 259 254 252 251 251 253 255 258 261 263 266 268 270 272 275 278 280 281 282 283 284 286 287 289 290 291 292 293 294 295 297 299 301 303 305 307 308 309 309 310 311 311 311 311 311 312 313 313 313
222 225 227 229 230 232 233 233 233 232 231 229 228 226 225 227 231 233 233 235 237 240 244 246 249 252 253 251 249 250 252 255 256 259 263 265 261 253 248 246 247 249 251 254 257 260 263 266 269 271 273 275 276 278 280 281 282 283 284 285 286 287 288 290 291 292 294 296 298 300 303 305 306 307 308 309 310 310 310 311 312 312 313 314 315 316 316
226 229 232 233 234 236 238 238 238 236 235 234 233 233 233 230 230 232 233 233 235 238 243 246 248 250 250 248 247 248 251 253 255 258 260 257 249 242 242 244 247 250 253 256 259 263 265 268 270 272 274 275 276 278 279 280 281 281 282 283 284 286 287 289 290 292 294 297 300 302 304 306 307 308 309 309 309 310 311 312 313 314 315 317 318 319 319
229 231 234 236 238 240 240 240 240 239 238 237 236 236 236 233 231 234 238 238 238 240 243 246 247 247 246 246 247 250 252 255 256 254 249 242 238 239 242 245 248 252 255 259 262 265 266 269 270 272 273 274 276 276 276 277 278 279 280 282 283 285 287 289 292 294 297 300 302 303 305 307 307 308 309 309 309 310 311 313 314 316 318 319 320 321 321
229 233 235 237 238 239 237 236 237 236 235 233 232 232 233 233 232 235 238 239 239 239 241 242 244 245 245 245 246 248 249 248 246 239 233 233 237 241 243 246 250 254 258 261 263 264 266 268 270 271 273 273 273 272 272 274 276 278 280 282 283 286 288 291 295 298 300 302 303 305 306 307 308 308 309 309 310 310 312 314 317 319 321 322 323 323 324
227 227 228 230 230 229 228 229 231 231 230 230 230 231 233 234 233 233 234 236 236 235 237 240 242 243 243 242 240 239 238 236 233 230 230 234 238 240 243 248 252 256 260 262 263 265 266 268 269 270 270 269 268 269 271 273 275 277 280 282 285 288 291 294 298 300 302 303 305 306 307 307 308 308 308 309 310 311 313 316 319 321 323 324 325 327 327
229 224 221 221 221 220 221 223 223 223 222 223 226 229 232 233 232 232 232 233 232 231 231 234 236 235 234 233 233 233 233 232 231 232 232 233 235 238 243 249 254 258 261 262 263 265 266 266 265 264 264 264 266 268 270 273 275 278 281 284 287 291 294 297 299 301 303 304 305 306 307 307 308 307 307 308 310 312 316 319 321 323 325 326 328 329 330
226 222 216 214 215 216 218 218 216 216 216 219 221 223 225 226 228 229 230 228 226 226 227 228 228 228 227 228 229 231 231 232 235 237 236 234 235 239 244 250 255 259 260 261 262 262 262 260 259 259 261 262 265 268 271 274 276 279 282 286 289 293 296 299 301 302 303 304 305 306 306 307 307 307 307 308 311 314 318 321 323 325 328 329 330 331 332
220 219 216 216 217 217 217 215 214 215 217 218 219 221 221 221 222 224 225 224 222 223 224 225 225 226 227 229 229 230 231 234 240 243 240 236 236 241 248 254 257 258 258 259 259 257 255 255 256 257 259 262 265 268 271 274 276 279 283 288 292 296 298 300 301 303 304 305 306 306 306 307 307 307 307 310 313 317 320 322 324 328 331 333 334 334 335
214 215 216 217 215 214 215 213 213 214 216 217 219 223 225 225 223 222 223 224 224 223 223 224 225 226 228 230 230 232 235 238 241 243 241 240 241 247 252 254 255 256 256 256 253 251 251 252 254 256 259 262 265 268 270 272 276 281 286 290 294 297 299 300 302 303 305 306 306 306 306 307 307 307 309 312 316 319 322 324 327 331 334 336 336 337 339
211 214 216 215 214 213 213 213 213 215 216 218 220 223 225 226 225 224 223 224 225 226 227 228 229 231 232 232 233 234 237 238 239 239 241 244 246 249 251 252 252 252 251 249 247 247 248 251 253 256 258 261 264 266 269 273 278 284 289 293 296 298 299 301 302 304 306 306 306 307 307 308 308 309 312 315 318 321 324 326 330 334 337 338 338 340 343
214 220 219 216 214 212 211 212 213 215 216 217 218 219 220 222 224 225 225 224 224 226 227 229 232 235 236 235 234 235 236 238 239 241 243 245 246 248 248 248 247 245 243 242 243 245 247 250 253 255 257 260 262 265 270 276 283 288 292 295 298 300 301 303 305 306 307 307 308 309 309 310 311 312 315 318 321 324 326 329 332 336 339 340 341 343 345
211 215 216 215 212 209 208 210 212 214 216 218 219 221 221 221 222 224 225 226 225 225 226 227 229 232 233 234 234 235 235 236 239 242 243 244 244 244 243 241 240 240 239 240 242 244 246 249 251 253 254 257 260 266 274 281 286 291 294 297 299 301 304 305 307 308 309 309 310 310 310 311 312 314 317 320 324 326 328 330 334 338 341 343 344 345 346
208 209 212 213 211 210 212 213 213 213 215 217 219 221 223 222 222 221 222 224 224 224 225 227 228 229 231 232 232 233 233 234 236 240 241 241 240 238 236 234 234 236 237 239 241 242 244 247 248 249 251 254 262 270 278 283 288 292 296 299 302 304 306 308 309 310 311 311 311 311 310 311 313 317 321 323 325 327 329 332 335 339 342 346 347 346 347
218 218 217 215 214 216 217 218 217 216 216 217 219 220 221 222 221 221 222 223 224 224 225 226 228 229 230 231 231 231 233 235 236 237 238 237 234 232 230 230 232 234 235 237 238 240 241 243 243 245 248 255 264 272 279 285 290 294 298 301 304 307 309 310 312 312 313 312 312 311 311 312 316 320 323 325 327 328 330 332 335 339 344 347 348 347 347
227 227 226 224 223 224 224 224 224 225 224 224 224 224 223 223 223 223 224 225 225 225 225 226 227 228 229 231 232 234 235 235 234 233 232 230 230 230 230 231 231 232 232 233 235 236 236 236 238 243 250 258 267 274 281 287 293 297 301 305 308 310 312 313 313 314 314 314 314 313 313 314 318 322 324 326 327 329 331 333 336 340 345 348 349 349 348
229 229 228 226 226 226 225 226 228 229 230 229 229 228 228 227 226 226 225 225 225 226 226 227 229 231 232 233 233 233 232 230 229 227 227 226 227 229 229 229 229 229 230 230 230 230 231 232 236 243 253 262 270 276 283 290 296 301 306 310 313 314 315 315 315 315 316 316 316 316 316 318 321 325 327 328 329 331 333 335 338 341 345 348 350 350 349
231 230 230 229 228 227 226 225 226 228 230 230 230 230 230 229 229 228 227 226 226 227 228 229 230 231 233 233 231 227 225 224 223 222 223 225 226 226 226 225 225 226 226 226 225 225 227 230 236 245 254 263 271 278 286 293 299 305 310 313 316 316 316 316 317 318 319 319 319 320 322 324 326 328 329 331 332 334 335 337 339 342 345 347 349 349 350
234 233 232 232 231 231 230 230 229 229 230 230 230 230 229 228 229 229 228 228 227 227 228 228 228 228 228 227 225 224 224 224 222 220 221 222 222 221 219 218 218 219 219 219 220 222 225 229 236 245 252 261 269 278 287 296 303 310 314 317 319 319 318 319 321 322 322 323 325 327 329 330 330 331 333 334 335 335 336 337 339 342 344 345 347 349 350
237 236 235 235 235 234 234 233 233 233 232 232 231 230 228 226 225 225 226 226 226 227 227 228 228 226 224 222 222 223 223 224 222 221 219 218 217 215 215 216 217 218 217 217 218 220 224 230 236 243 250 259 268 278 289 300 309 315 319 321 322 321 321 323 325 325 327 330 333 333 334 334 335 335 337 338 337 336 337 338 340 341 342 343 345 348 350
240 240 239 239 239 238 237 236 234 233 232 231 229 227 226 224 222 222 223 224 225 227 227 226 225 223 222 221 221 220 219 220 221 219 216 213 213 213 214 216 216 215 214 215 217 220 224 230 236 242 250 258 268 279 292 306 315 320 322 325 324 324 326 329 330 331 335 339 339 337 336 337 339 340 340 340 338 337 339 341 341 341 341 342 344 346 348
239 240 241 240 240 240 240 239 237 234 231 229 228 226 224 222 222 222 222 223 224 225 224 222 221 220 219 218 217 216 215 216 216 213 211 211 211 212 213 213 212 212 212 214 217 221 226 231 236 242 249 258 268 281 295 311 320 322 325 328 328 328 331 333 335 338 341 342 340 338 337 339 342 343 342 342 341 340 342 343 342 341 341 342 343 345 347
238 240 241 242 241 240 239 239 238 236 231 226 223 222 221 220 220 220 220 220 220 220 219 217 216 215 214 214 214 212 209 206 204 205 207 209 210 210 210 210 210 211 212 213 217 222 227 232 236 241 249 258 268 281 296 311 320 323 326 329 331 331 332 334 336 339 340 339 339 338 337 339 342 343 343 343 342 342 344 344 343 342 342 342 343 344 346
239 243 245 245 244 242 239 236 233 232 230 225 220 217 216 216 216 216 216 217 216 215 214 213 212 211 211 211 209 205 200 198 199 202 205 207 208 208 208 208 210 211 212 214 219 225 229 233 236 241 249 259 268 279 292 305 315 318 322 328 331 331 330 331 333 335 335 335 337 336 336 337 340 342 342 342 343 344 345 345 343 343 343 343 343 343 345
241 245 247 247 245 242 239 234 228 225 225 224 220 215 212 211 212 212 212 212 211 210 209 209 210 210 209 206 203 198 195 197 201 203 205 206 207 206 207 208 211 213 213 215 220 226 231 234 238 242 249 258 267 276 285 295 304 309 314 321 325 326 325 326 328 329 330 331 333 334 334 334 336 338 340 341 342 343 344 344 344 343 343 343 343 343 344
240 245 248 248 244 238 233 229 223 218 218 220 220 216 212 209 209 209 209 209 208 208 207 208 209 208 206 202 199 196 196 199 202 205 207 207 206 205 207 209 212 214 216 218 222 227 232 236 240 244 249 256 264 272 279 286 293 298 303 308 314 317 318 319 322 324 325 327 329 330 331 332 333 335 336 338 339 341 341 342 343 343 343 344 344 344 343
234 236 236 237 235 229 223 218 215 213 213 216 217 216 214 211 209 208 207 207 206 206 205 206 206 205 202 198 196 196 199 202 205 206 207 206 206 207 209 211 213 218 220 221 224 228 233 237 242 246 250 255 261 267 273 278 283 288 293 297 303 307 310 313 317 319 321 322 324 326 328 329 330 331 333 334 336 338 339 340 341 342 343 343 343 343 343
229 221 215 212 211 209 205 202 201 202 205 209 212 213 212 209 208 207 206 205 204 203 203 202 200 198 196 194 195 199 203 205 206 206 206 207 208 210 212 214 218 222 224 225 226 229 233 238 243 247 251 255 260 265 270 274 278 283 287 291 296 301 305 308 312 315 317 317 319 322 324 326 327 328 330 331 333 334 336 338 339 340 342 342 342 342 343
208 197 192 197 200 196 192 190 190 191 194 201 206 208 206 203 201 201 201 201 200 199 198 195 192 192 193 196 199 203 205 206 206 207 208 210 212 214 215 217 220 223 225 227 229 230 233 238 243 248 252 256 261 265 269 273 277 281 285 289 293 297 301 305 307 310 312 314 315 318 320 322 324 326 327 328 329 331 333 335 336 338 339 340 340 340 341
183 176 171 173 182 188 188 187 186 186 188 193 198 199 197 195 193 193 194 195 195 193 191 190 190 193 196 200 204 207 207 207 208 209 210 213 215 217 218 220 224 226 229 231 233 233 234 237 242 247 252 257 262 266 269 273 277 280 284 288 291 294 298 301 303 305 307 309 311 314 316 318 320 322 324 325 326 328 330 331 333 335 336 336 337 338 339
160 163 161 159 162 172 181 185 186 186 188 190 193 193 192 191 191 192 192 193 192 191 190 192 194 197 201 205 208 209 210 211 212 213 214 217 219 221 223 226 230 232 233 235 237 237 238 239 242 247 252 257 261 266 269 272 276 279 282 285 289 291 294 297 299 301 303 306 308 310 313 315 317 319 321 322 324 325 327 328 330 331 332 333 334 335 336
164 169 168 164 162 167 176 182 183 183 183 183 185 187 189 189 191 193 194 194 194 193 194 196 199 202 205 209 211 212 213 214 215 216 219 221 224 226 228 230 233 234 235 237 238 239 240 241 243 246 251 256 260 264 267 270 274 277 281 284 287 289 291 294 296 298 300 303 305 307 309 311 313 315 318 320 321 322 323 325 326 328 329 330 331 332 334
188 194 196 190 186 188 193 194 191 189 188 186 185 185 185 186 189 193 196 197 198 199 201 203 205 207 210 213 215 215 216 217 218 220 223 225 226 228 230 232 234 235 237 240 242 243 245 246 247 248 251 255 258 261 265 269 272 276 279 282 285 287 289 291 294 295 297 300 302 305 306 308 310 312 315 316 318 319 320 322 323 324 325 327 328 329 331
203 203 204 202 198 197 200 202 200 198 199 198 195 193 192 192 194 197 201 203 206 208 209 211 213 214 216 218 219 220 220 221 222 224 227 229 231 234 236 238 239 240 242 245 246 247 248 249 250 251 253 255 257 260 264 268 271 274 278 281 284 286 288 290 292 293 295 297 300 302 303 305 307 310 312 313 315 316 317 318 320 321 323 323 325 326 328
220 217 214 209 203 199 199 200 199 199 201 202 201 201 202 203 205 207 209 212 214 216 218 219 220 222 222 223 223 224 224 225 227 229 231 233 236 238 240 241 241 241 243 245 246 247 249 250 252 253 254 256 258 261 263 266 269 273 277 280 283 285 287 289 290 292 294 296 298 299 301 303 305 308 310 311 312 313 315 315 317 319 320 321 322 323 325
227 226 223 218 215 211 208 205 203 201 202 203 203 204 207 211 213 216 218 219 221 223 225 226 226 227 226 226 227 227 228 230 232 233 235 236 238 239 240 240 240 240 242 244 246 248 250 251 253 255 256 257 259 261 263 266 269 273 276 279 282 284 286 288 289 291 293 295 296 297 299 302 304 305 307 309 310 311 312 313 314 316 317 318 319 321 322
233 229 225 223 222 221 219 217 215 211 209 208 208 208 210 214 217 220 222 223 224 225 227 228 229 230 230 231 232 233 234 234 235 236 237 238 240 241 242 242 241 241 242 244 245 247 250 252 254 255 257 258 260 262 264 267 269 272 275 278 281 284 286 288 289 291 292 293 294 296 298 300 302 304 305 307 308 309 309 310 312 313 314 315 317 318 320
233 232 228 225 226 226 226 225 223 221 218 216 215 214 214 216 219 221 223 224 225 227 229 231 232 233 234 234 234 235 236 236 237 238 239 240 242 243 244 245 244 243 243 243 244 246 249 252 254 256 258 260 261 263 265 267 269 272 275 279 282 284 286 288 289 290 291 292 293 295 297 299 301 302 304 305 306 307 308 309 310 311 312 313 315 316 317
228 231 232 231 231 233 233 231 230 228 224 222 221 220 220 221 221 222 224 225 226 227 229 231 232 234 234 235 235 237 237 238 239 242 243 244 245 246 247 246 245 244 243 242 243 246 249 252 255 258 260 262 263 264 266 268 270 274 277 280 282 284 286 287 288 289 290 291 292 294 296 298 300 301 303 304 304 306 307 308 309 309 310 312 313 314 315
230 232 236 238 237 237 236 235 235 234 231 227 225 225 225 225 225 225 225 226 228 228 230 231 232 233 235 236 237 238 239 239 241 243 245 246 247 248 248 247 246 245 244 244 246 248 251 255 258 261 262 264 265 267 269 271 275 277 279 281 283 284 285 286 287 287 288 290 291 293 295 297 298 300 301 302 303 304 306 307 307 308 309 310 312 312 313
Height
5670 5673 5676 5680 5684 5687 5689 5691 5694 5696 5699 5701 5704 5707 5710 5713 5715 5717 5720 5722 5725 5728 5731 5733 5735 5736 5738 5739 5739 5740 5741 5742 5744 5744 5745 5745 5746 5746 5747 5747 5747 5747 5747 5747 5747 5748 5749 5749 5750 5751 5751 5751 5752 5752 5752 5752 5753 5753 5753 5752 5752 5751 5751 5750 5749 5748 5747 5746 5744 5742 5741 5739 5738 5736 5734 5733 5731 5730 5728 5727 5725 5724 5722 5721 5719 5717 5716
5668 5671 5674 5677 5681 5684 5687 5689 5692 5694 5697 5700 5702 5704 5707 5709 5712 5714 5717 5719 5722 5725 5727 5729 5730 5732 5734 5735 5735 5736 5738 5739 5740 5740 5741 5742 5742 5742 5743 5743 5744 5744 5744 5744 5744 5745 5745 5746 5747 5747 5747 5748 5748 5748 5749 5749 5749 5749 5749 5748 5747 5747 5746 5746 5745 5744 5743 5741 5740 5738 5736 5735 5733 5731 5730 5728 5727 5725 5724 5722 5720 5719 5717 5715 5714 5712 5710
5666 5669 5673 5675 5678 5681 5684 5687 5689 5692 5694 5697 5699 5701 5703 5706 5708 5711 5713 5715 5717 5720 5723 5725 5727 5729 5730 5731 5732 5733 5735 5736 5736 5737 5737 5738 5739 5739 5739 5740 5740 5740 5741 5741 5741 5742 5742 5743 5743 5743 5744 5744 5744 5745 5745 5745 5745 5745 5745 5744 5744 5743 5743 5742 5741 5740 5738 5737 5735 5734 5732 5730 5729 5727 5725 5724 5722 5720 5719 5717 5715 5714 5712 5710 5708 5706 5704
5663 5666 5670 5673 5676 5679 5682 5684 5687 5689 5691 5693 5695 5697 5700 5703 5705 5707 5709 5712 5715 5718 5720 5721 5723 5725 5726 5727 5729 5730 5731 5732 5733 5733 5734 5735 5736 5736 5736 5736 5737 5737 5738 5738 5738 5739 5739 5739 5740 5740 5740 5741 5741 5741 5741 5741 5741 5741 5741 5741 5740 5740 5739 5738 5737 5736 5734 5733 5731 5730 5728 5726 5725 5723 5721 5720 5718 5716 5714 5712 5711 5709 5707 5705 5703 5701 5699
5660 5664 5667 5670 5673 5676 5678 5681 5683 5686 5688 5690 5693 5695 5697 5700 5702 5704 5707 5710 5713 5715 5717 5718 5720 5722 5723 5724 5726 5727 5728 5729 5729 5730 5731 5732 5733 5733 5733 5734 5734 5735 5735 5735 5735 5735 5735 5736 5736 5737 5737 5737 5737 5738 5738 5738 5738 5738 5737 5737 5737 5736 5735 5734 5733 5731 5730 5729 5727 5726 5724 5723 5721 5719 5717 5716 5714 5712 5710 5708 5706 5704 5702 5700 5698 5696 5693
5658 5662 5665 5667 5668 5671 5675 5678 5681 5683 5685 5687 5690 5692 5695 5697 5700 5702 5705 5707 5710 5712 5713 5715 5717 5719 5721 5722 5723 5724 5725 5726 5726 5727 5729 5730 5730 5730 5730 5731 5732 5732 5732 5732 5732 5732 5732 5732 5733 5733 5734 5734 5734 5734 5734 5734 5734 5734 5734 5733 5733 5732 5731 5730 5729 5727 5726 5725 5724 5722 5721 5719 5717 5715 5714 5712 5710 5708 5706 5704 5702 5699 5697 5695 5692 5690 5687
5657 5659 5662 5663 5665 5669 5673 5676 5678 5680 5682 5685 5687 5689 5692 5695 5697 5700 5702 5704 5707 5709 5711 5712 5714 5716 5717 5718 5719 5720 5721 5723 5723 5725 5726 5726 5726 5726 5727 5728 5728 5729 5729 5728 5728 5729 5729 5729 5730 5730 5730 5730 5730 5730 5731 5731 5730 5730 5730 5730 5729 5728 5727 5726 5725 5724 5722 5721 5720 5718 5717 5715 5713 5711 5710 5708 5706 5704 5702 5699 5697 5695 5692 5690 5687 5684 5682
5654 5656 5658 5660 5664 5667 5671 5673 5676 5678 5680 5682 5684 5686 5689 5692 5694 5697 5699 5702 5704 5706 5708 5709 5711 5712 5714 5715 5716 5717 5718 5720 5721 5722 5723 5723 5723 5723 5724 5724 5725 5725 5725 5725 5725 5725 5726 5726 5726 5727 5727 5727 5727 5727 5727 5727 5727 5727 5726 5726 5725 5725 5724 5723 5721 5720 5719 5717 5716 5714 5713 5711 5709 5708 5706 5703 5701 5699 5697 5695 5692 5690 5687 5684 5682 5679 5676
5651 5654 5656 5659 5662 5664 5667 5671 5674 5676 5678 5680 5682 5684 5687 5689 5691 5694 5696 5698 5700 5702 5704 5706 5708 5709 5711 5712 5713 5714 5716 5717 5717 5718 5719 5720 5720 5721 5721 5721 5721 5721 5721 5721 5722 5722 5722 5723 5723 5724 5724 5724 5724 5724 5724 5724 5724 5723 5723 5722 5722 5721 5720 5719 5718 5716 5715 5714 5712 5710 5709 5707 5706 5704 5701 5699 5697 5695 5692 5690 5687 5685 5682 5679 5676 5674 5671
5650 5652 5655 5657 5659 5662 5665 5669 5671 5674 5676 5678 5680 5682 5684 5687 5689 5691 5693 5695 5697 5699 5701 5703 5705 5706 5707 5709 5711 5712 5713 5713 5714 5714 5715 5717 5717 5717 5717 5718 5718 5718 5718 5718 5719 5719 5719 5720 5720 5721 5721 5721 5721 5721 5721 5720 5720 5720 5719 5718 5718 5718 5717 5715 5714 5713 5711 5710 5708 5707 5705 5703 5702 5700 5697 5695 5693 5690 5688 5685 5683 5680 5677 5674 5671 5668 5665
5649 5651 5653 5655 5657 5660 5664 5667 5669 5672 5674 5676 5678 5680 5681 5684 5687 5689 5691 5693 5694 5697 5699 5700 5702 5703 5705 5707 5708 5709 5709 5710 5710 5711 5712 5713 5713 5713 5714 5714 5714 5714 5715 5715 5716 5716 5717 5717 5717 5718 5718 5718 5718 5717 5717 5717 5716 5716 5715 5715 5715 5714 5713 5712 5711 5709 5708 5706 5704 5703 5701 5699 5698 5696 5693 5691 5689 5686 5684 5681 5678 5675 5672 5669 5666 5663 5659
5646 5649 5651 5653 5655 5658 5661 5663 5666 5669 5671 5673 5674 5676 5679 5682 5684 5685 5688 5690 5692 5694 5696 5697 5699 5701 5702 5703 5704 5704 5705 5706 5706 5707 5709 5710 5710 5710 5710 5710 5711 5712 5712 5713 5713 5713 5714 5714 5715 5715 5715 5715 5714 5714 5713 5713 5713 5713 5712 5711 5711 5711 5710 5708 5707 5705 5704 5702 5701 5699 5697 5696 5694 5692 5690 5687 5685 5682 5680 5677 5674 5671 5667 5664 5661 5657 5654
5644 5646 5648 5650 5652 5654 5657 5660 5663 5666 5668 5669 5671 5674 5677 5680 5681 5683 5686 5688 5690 5691 5693 5694 5696 5697 5697 5698 5700 5701 5702 5703 5703 5704 5706 5706 5707 5707 5707 5708 5708 5709 5709 5710 5710 5711 5711 5711 5711 5711 5711 5711 5711 5711 5710 5710 5710 5709 5709 5708 5708 5707 5706 5705 5703 5702 5700 5699 5697 5696 5694 5692 5690 5688 5686 5684 5681 5679 5676 5673 5670 5667 5663 5659 5656 5652 5649
5644 5646 5647 5649 5650 5652 5655 5657 5660 5662 5664 5665 5669 5673 5675 5677 5678 5680 5683 5685 5687 5688 5690 5691 5692 5693 5693 5694 5696 5697 5698 5699 5700 5701 5702 5703 5703 5703 5704 5705 5706 5706 5707 5707 5708 5708 5708 5708 5708 5708 5708 5708 5708 5707 5707 5707 5706 5706 5706 5705 5704 5703 5702 5701 5700 5698 5697 5695 5694 5693 5691 5689 5687 5685 5683 5680 5678 5675 5673 5670 5667 5663 5659 5656 5652 5648 5644
5643 5644 5646 5647 5649 5651 5653 5655 5657 5660 5661 5664 5667 5670 5672 5674 5676 5678 5680 5682 5684 5685 5687 5688 5689 5689 5690 5691 5692 5693 5694 5696 5697 5698 5699 5699 5700 5701 5702 5703 5703 5704 5704 5705 5705 5705 5705 5705 5705 5705 5705 5705 5705 5705 5704 5704 5703 5703 5703 5702 5701 5700 5699 5697 5696 5695 5693 5692 5691 5690 5688 5686 5684 5682 5680 5677 5675 5672 5670 5667 5663 5660 5656 5652 5649 5645 5640
5641 5642 5644 5645 5647 5649 5651 5653 5655 5657 5659 5661 5664 5666 5668 5671 5673 5675 5676 5679 5680 5682 5684 5685 5685 5686 5687 5688 5689 5690 5691 5692 5693 5694 5695 5696 5697 5699 5699 5700 5701 5701 5702 5702 5702 5702 5702 5702 5702 5702 5702 5702 5702 5702 5701 5701 5700 5700 5699 5699 5697 5696 5695 5694 5693 5692 5690 5689 5688 5686 5685 5683 5681 5679 5677 5674 5672 5669 5666 5664 5660 5657 5653 5649 5646 5642 5637
5638 5640 5641 5643 5645 5646 5648 5649 5651 5653 5655 5657 5659 5662 5664 5666 5669 5671 5673 5674 5676 5679 5680 5681 5682 5682 5683 5685 5686 5687 5688 5689 5690 5691 5692 5694 5695 5696 5697 5697 5698 5699 5699 5699 5699 5699 5699 5699 5699 5699 5699 5699 5699 5699 5698 5698 5697 5697 5696 5695 5694 5693 5692 5691 5690 5689 5687 5686 5684 5683 5682 5680 5677 5675 5673 5671 5668 5666 5663 5661 5657 5654 5650 5646 5642 5638 5634
5635 5636 5638 5640 5641 5642 5644 5645 5647 5649 5652 5654 5656 5658 5660 5662 5665 5667 5669 5671 5673 5675 5676 5677 5678 5679 5680 5682 5683 5684 5685 5686 5687 5689 5690 5692 5692 5693 5694 5695 5695 5696 5696 5696 5696 5696 5696 5696 5696 5696 5696 5696 5696 5696 5695 5695 5694 5694 5693 5692 5691 5690 5689 5688 5687 5686 5684 5683 5681 5679 5678 5677 5674 5672 5670 5668 5665 5663 5660 5658 5654 5651 5647 5643 5639 5635 5630
5632 5634 5636 5637 5638 5640 5641 5642 5644 5646 5649 5651 5653 5655 5657 5659 5661 5663 5665 5667 5669 5670 5672 5673 5674 5675 5677 5678 5680 5681 5682 5684 5685 5687 5688 5689 5689 5690 5691 5691 5692 5693 5693 5693 5693 5693 5693 5693 5693 5693 5693 5693 5693 5693 5692 5692 5691 5691 5690 5689 5688 5688 5687 5686 5684 5683 5682 5680 5678 5676 5675 5673 5671 5669 5667 5665 5663 5660 5658 5655 5652 5648 5644 5641 5637 5632 5628
5630 5631 5633 5635 5636 5637 5638 5640 5642 5644 5646 5648 5650 5652 5654 5656 5658 5660 5662 5663 5665 5667 5668 5670 5671 5672 5674 5675 5677 5678 5680 5682 5683 5684 5685 5685 5686 5687 5687 5688 5689 5690 5690 5690 5690 5690 5690 5690 5690 5690 5691 5690 5690 5690 5689 5689 5688 5688 5687 5687 5686 5685 5684 5683 5682 5681 5679 5677 5675 5673 5671 5670 5668 5666 5664 5662 5660 5657 5655 5652 5649 5645 5641 5637 5633 5629 5625
5628 5630 5632 5633 5634 5635 5637 5638 5640 5642 5644 5646 5648 5649 5651 5653 5654 5656 5658 5660 5662 5663 5665 5666 5668 5669 5671 5673 5674 5676 5678 5679 5680 5681 5682 5682 5683 5684 5684 5685 5686 5686 5687 5687 5687 5687 5688 5688 5688 5688 5688 5688 5687 5687 5687 5686 5686 5685 5685 5685 5684 5683 5681 5680 5679 5678 5676 5674 5672 5670 5668 5666 5665 5663 5661 5659 5657 5655 5652 5649 5646 5643 5639 5634 5630 5625 5621
5626 5628 5629 5630 5631 5633 5634 5635 5637 5639 5641 5643 5645 5647 5648 5650 5651 5653 5655 5657 5658 5660 5662 5663 5665 5667 5668 5670 5672 5673 5675 5676 5676 5677 5678 5679 5680 5680 5681 5682 5683 5683 5684 5684 5684 5685 5685 5685 5685 5685 5685 5685 5685 5685 5684 5684 5684 5683 5683 5682 5682 5681 5679 5678 5676 5675 5674 5672 5670 5668 5666 5663 5661 5660 5658 5656 5654 5652 5649 5646 5643 5640 5636 5632 5627 5622 5617
5623 5624 5625 5626 5628 5630 5631 5633 5634 5636 5637 5639 5641 5643 5645 5647 5648 5650 5651 5654 5656 5657 5659 5661 5663 5664 5666 5667 5669 5670 5671 5672 5673 5674 5675 5676 5677 5677 5678 5679 5680 5680 5681 5681 5682 5682 5682 5682 5683 5683 5683 5683 5682 5682 5682 5682 5682 5681 5681 5680 5679 5678 5677 5676 5674 5673 5671 5669 5667 5665 5663 5661 5659 5657 5655 5654 5652 5649 5646 5643 5640 5637 5633 5629 5624 5620 5615
5621 5622 5623 5625 5626 5628 5629 5631 5632 5634 5635 5637 5638 5640 5642 5643 5645 5647 5649 5650 5652 5654 5656 5658 5660 5662 5663 5664 5666 5667 5668 5669 5670 5671 5672 5673 5674 5675 5676 5677 5677 5677 5678 5678 5679 5679 5680 5680 5680 5680 5680 5680 5680 5680 5680 5680 5680 5679 5678 5678 5677 5676 5675 5673 5672 5670 5668 5666 5664 5662 5660 5658 5656 5654 5652 5651 5648 5646 5643 5640 5637 5634 5630 5626 5622 5617 5613
5620 5621 5622 5623 5624 5626 5627 5629 5630 5632 5633 5635 5636 5638 5639 5641 5643 5644 5646 5648 5649 5651 5653 5655 5657 5659 5660 5661 5662 5664 5665 5666 5667 5668 5668 5670 5671 5672 5673 5674 5674 5675 5675 5676 5676 5677 5677 5678 5678 5678 5678 5678 5678 5678 5678 5678 5678 5677 5676 5675 5674 5673 5672 5671 5669 5667 5665 5663 5661 5659 5658 5656 5654 5652 5650 5648 5646 5643 5640 5638 5635 5632 5628 5624 5620 5615 5611
5618 5619 5620 5621 5623 5624 5626 5627 5628 5630 5631 5633 5634 5635 5637 5638 5640 5641 5643 5645 5646 5648 5650 5652 5654 5655 5656 5658 5659 5661 5662 5663 5664 5665 5666 5667 5668 5669 5670 5671 5671 5672 5673 5673 5674 5674 5675 5675 5676 5676 5676 5676 5676 5676 5676 5676 5675 5675 5674 5673 5672 5671 5670 5668 5666 5664 5662 5660 5659 5657 5655 5654 5652 5650 5648 5645 5643 5641 5638 5635 5632 5629 5626 5622 5618 5614 5609
5616 5617 5618 5620 5621 5622 5624 5625 5627 5628 5629 5631 5632 5633 5635 5636 5637 5639 5640 5642 5644 5646 5648 5649 5651 5652 5653 5655 5656 5657 5659 5660 5661 5662 5663 5664 5665 5666 5667 5668 5669 5670 5670 5671 5672 5672 5673 5673 5673 5674 5674 5675 5675 5674 5674 5674 5673 5673 5672 5671 5670 5668 5667 5666 5664 5662 5660 5658 5656 5655 5653 5652 5650 5648 5646 5643 5641 5639 5636 5633 5630 5628 5624 5621 5617 5612 5608
5615 5616 5617 5619 5620 5621 5622 5624 5625 5626 5627 5628 5630 5631 5633 5634 5635 5637 5639 5640 5642 5644 5645 5646 5647 5649 5650 5652 5653 5655 5656 5657 5658 5659 5660 5661 5662 5663 5665 5666 5666 5667 5668 5669 5669 5670 5671 5671 5672 5672 5672 5673 5673 5673 5672 5672 5671 5671 5670 5669 5668 5666 5664 5663 5661 5659 5658 5656 5654 5653 5651 5650 5648 5646 5644 5642 5639 5637 5634 5631 5628 5625 5622 5619 5615 5611 5606
5613 5614 5615 5616 5617 5618 5620 5621 5622 5623 5624 5626 5627 5629 5630 5632 5633 5635 5637 5639 5640 5641 5642 5644 5645 5646 5647 5649 5650 5652 5653 5654 5655 5656 5657 5658 5660 5661 5662 5663 5664 5665 5666 5666 5667 5668 5669 5670 5670 5670 5670 5670 5671 5671 5670 5670 5669 5669 5668 5667 5665 5664 5662 5660 5659 5657 5656 5654 5653 5651 5649 5648 5646 5644 5642 5640 5637 5634 5632 5629 5626 5623 5620 5617 5613 5609 5605
5610 5611 5612 5613 5614 5615 5616 5618 5618 5620 5621 5623 5624 5626 5627 5629 5631 5632 5634 5635 5636 5638 5639 5640 5642 5643 5644 5646 5647 5649 5649 5650 5651 5653 5654 5656 5657 5658 5659 5661 5662 5663 5664 5664 5665 5666 5667 5668 5668 5668 5668 5669 5669 5669 5669 5668 5668 5667 5666 5665 5663 5662 5660 5658 5657 5655 5654 5652 5651 5649 5648 5646 5644 5642 5640 5637 5635 5632 5629 5627 5624 5621 5618 5615 5612 5608 5604
5607 5608 5609 5610 5611 5612 5613 5614 5616 5617 5618 5620 5621 5623 5624 5626 5627 5629 5630 5632 5633 5633 5635 5636 5638 5640 5641 5643 5644 5645 5646 5647 5648 5650 5652 5653 5655 5656 5657 5658 5659 5660 5661 5662 5663 5664 5665 5666 5666 5667 5667 5667 5667 5667 5667 5666 5666 5665 5664 5663 5661 5660 5658 5657 5655 5654 5652 5651 5649 5648 5646 5645 5642 5640 5638 5635 5633 5630 5627 5625 5622 5619 5616 5613 5610 5607 5603
5604 5604 5605 5606 5607 5608 5610 5611 5613 5614 5615 5617 5618 5620 5621 5622 5624 5625 5626 5627 5628 5629 5631 5633 5635 5637 5638 5639 5640 5641 5643 5645 5646 5648 5649 5651 5652 5653 5654 5655 5657 5658 5659 5660 5662 5663 5663 5664 5664 5665 5665 5666 5666 5665 5665 5665 5664 5663 5662 5661 5659 5658 5656 5655 5654 5652 5651 5649 5648 5646 5645 5643 5641 5639 5636 5634 5631 5628 5626 5623 5620 5617 5615 5612 5609 5606 5602
5600 5601 5602 5603 5604 5605 5606 5607 5608 5610 5611 5613 5614 5616 5617 5618 5619 5620 5621 5622 5624 5626 5628 5630 5632 5633 5635 5636 5637 5639 5640 5642 5644 5645 5647 5648 5649 5651 5652 5653 5655 5656 5657 5659 5660 5661 5661 5662 5663 5663 5664 5664 5664 5664 5663 5663 5662 5661 5660 5659 5658 5656 5655 5654 5652 5651 5649 5648 5646 5645 5643 5642 5640 5637 5635 5632 5629 5627 5624 5621 5618 5616 5613 5610 5607 5604 5601
5598 5598 5598 5599 5600 5601 5602 5603 5605 5606 5607 5609 5610 5612 5613 5614 5615 5616 5618 5619 5621 5623 5625 5627 5628 5630 5632 5633 5635 5636 5638 5640 5642 5644 5645 5646 5647 5649 5650 5651 5653 5654 5656 5657 5658 5659 5660 5660 5661 5661 5662 5662 5662 5662 5662 5661 5660 5659 5658 5657 5656 5655 5654 5652 5651 5650 5648 5647 5645 5643 5642 5640 5638 5636 5633 5631 5628 5625 5622 5620 5617 5614 5611 5608 5605 5602 5599
5595 5595 5595 5596 5596 5597 5598 5600 5601 5602 5603 5604 5606 5607 5609 5610 5611 5613 5615 5616 5618 5620 5622 5624 5626 5627 5629 5631 5632 5634 5636 5638 5640 5641 5642 5644 5645 5647 5648 5650 5651 5653 5654 5655 5656 5657 5658 5659 5659 5660 5660 5660 5660 5660 5660 5659 5658 5657 5657 5656 5655 5653 5652 5651 5650 5648 5647 5646 5644 5642 5640 5638 5636 5634 5632 5630 5627 5624 5621 5618 5615 5613 5610 5607 5604 5601 5598
5593 5593 5593 5593 5593 5594 5594 5595 5597 5598 5599 5600 5602 5603 5604 5606 5608 5610 5612 5613 5615 5617 5619 5621 5623 5625 5627 5628 5630 5632 5633 5635 5637 5638 5640 5641 5643 5644 5646 5648 5650 5651 5652 5653 5654 5655 5656 5657 5657 5658 5658 5658 5658 5658 5658 5657 5657 5656 5655 5654 5653 5652 5651 5650 5649 5647 5646 5644 5643 5640 5638 5636 5634 5633 5631 5628 5626 5623 5620 5617 5614 5611 5609 5605 5602 5599 5596
5591 5591 5591 5591 5591 5591 5591 5592 5593 5594 5595 5597 5598 5600 5601 5603 5605 5607 5609 5611 5613 5615 5617 5619 5620 5622 5624 5625 5627 5629 5631 5633 5635 5636 5638 5639 5641 5643 5645 5646 5648 5649 5651 5652 5652 5653 5654 5655 5655 5656 5656 5656 5656 5656 5656 5655 5655 5654 5653 5652 5652 5651 5649 5648 5647 5645 5644 5642 5641 5639 5637 5634 5632 5631 5629 5627 5624 5621 5619 5616 5613 5610 5607 5604 5601 5598 5595
5589 5589 5589 5588 5588 5588 5589 5589 5590 5591 5593 5594 5596 5598 5599 5601 5603 5605 5607 5609 5611 5613 5615 5616 5618 5619 5621 5623 5625 5627 5629 5631 5633 5634 5636 5638 5639 5641 5643 5645 5646 5647 5648 5649 5650 5651 5652 5652 5653 5653 5654 5654 5654 5653 5653 5653 5653 5652 5651 5650 5650 5649 5648 5646 5645 5643 5642 5640 5639 5637 5635 5633 5630 5628 5627 5625 5623 5620 5617 5615 5612 5609 5606 5603 5600 5597 5594
5587 5587 5587 5587 5587 5587 5587 5588 5588 5590 5591 5593 5594 5596 5598 5599 5601 5603 5605 5607 5609 5611 5612 5614 5615 5617 5619 5621 5624 5626 5628 5630 5631 5633 5634 5636 5638 5640 5641 5643 5644 5644 5646 5647 5648 5649 5649 5650 5650 5651 5651 5651 5651 5651 5651 5651 5651 5650 5649 5648 5647 5647 5645 5644 5643 5641 5640 5638 5637 5635 5633 5631 5629 5626 5624 5622 5621 5618 5616 5613 5610 5608 5605 5602 5599 5596 5593
5586 5586 5586 5586 5586 5586 5586 5587 5588 5589 5590 5591 5593 5595 5596 5598 5600 5602 5603 5605 5607 5608 5610 5612 5614 5616 5619 5621 5623 5625 5626 5628 5629 5631 5633 5634 5636 5638 5639 5641 5642 5643 5644 5645 5646 5646 5647 5647 5648 5648 5648 5649 5649 5649 5649 5649 5648 5648 5647 5646 5645 5644 5643 5642 5640 5639 5637 5635 5634 5633 5631 5629 5627 5624 5622 5620 5618 5616 5614 5611 5608 5606 5603 5600 5597 5594 5592
5586 5586 5586 5586 5586 5586 5586 5587 5587 5588 5590 5591 5592 5594 5595 5597 5599 5600 5602 5604 5605 5607 5609 5611 5613 5616 5618 5619 5621 5623 5625 5626 5627 5629 5631 5633 5634 5636 5638 5639 5639 5640 5641 5642 5643 5644 5645 5645 5645 5645 5646 5646 5646 5646 5646 5646 5645 5645 5644 5643 5642 5641 5640 5639 5638 5636 5635 5633 5631 5630 5628 5627 5625 5622 5620 5618 5616 5614 5611 5609 5606 5604 5601 5599 5596 5593 5590
5586 5586 5586 5586 5586 5586 5587 5587 5588 5589 5590 5591 5592 5593 5595 5596 5598 5599 5601 5603 5604 5606 5608 5610 5612 5614 5616 5618 5620 5621 5623 5624 5625 5627 5629 5631 5632 5634 5635 5636 5636 5637 5638 5639 5640 5641 5642 5642 5642 5642 5642 5643 5643 5643 5643 5643 5642 5642 5641 5640 5639 5638 5637 5636 5635 5634 5632 5631 5629 5627 5625 5624 5622 5620 5618 5616 5613 5611 5609 5607 5604 5602 5599 5597 5594 5591 5588
5586 5586 5586 5586 5586 5587 5587 5588 5588 5589 5590 5591 5592 5593 5595 5596 5597 5599 5600 5602 5604 5606 5607 5609 5611 5613 5615 5616 5618 5620 5621 5622 5624 5625 5627 5628 5630 5631 5632 5633 5633 5635 5636 5636 5637 5638 5638 5639 5639 5639 5639 5639 5639 5640 5639 5639 5639 5638 5638 5637 5636 5635 5634 5633 5632 5631 5629 5628 5626 5625 5623 5621 5619 5617 5615 5613 5611 5609 5607 5604 5602 5600 5597 5595 5593 5590 5587
5586 5586 5586 5586 5587 5587 5588 5588 5589 5590 5590 5591 5592 5593 5594 5596 5597 5599 5600 5602 5603 5605 5607 5608 5610 5612 5613 5615 5616 5617 5618 5620 5622 5623 5625 5626 5628 5629 5630 5630 5631 5632 5632 5633 5633 5634 5634 5635 5635 5635 5636 5636 5636 5636 5636 5636 5635 5635 5634 5634 5633 5632 5631 5630 5629 5628 5626 5625 5623 5622 5620 5618 5616 5614 5612 5610 5608 5606 5604 5602 5600 5597 5595 5593 5590 5588 5585
5586 5586 5586 5586 5587 5587 5588 5588 5589 5590 5591 5592 5592 5593 5595 5596 5597 5598 5600 5601 5603 5604 5606 5607 5608 5610 5611 5612 5613 5615 5616 5617 5619 5620 5622 5623 5625 5626 5626 5626 5627 5628 5628 5629 5630 5630 5631 5631 5632 5632 5632 5632 5632 5632 5632 5632 5632 5631 5631 5630 5630 5629 5628 5627 5626 5624 5623 5621 5620 5619 5617 5615 5614 5611 5609 5607 5605 5603 5601 5599 5597 5595 5592 5590 5588 5585 5583
5586 5586 5586 5587 5587 5587 5588 5589 5590 5591 5591 5592 5593 5594 5594 5595 5596 5597 5598 5600 5601 5602 5604 5605 5606 5607 5609 5610 5611 5612 5614 5615 5617 5618 5619 5620 5621 5622 5622 5623 5624 5625 5625 5626 5626 5627 5627 5628 5628 5628 5628 5629 5629 5629 5628 5628 5628 5627 5627 5626 5626 5625 5624 5623 5622 5621 5619 5618 5617 5615 5614 5612 5610 5609 5607 5605 5602 5600 5598 5596 5594 5592 5589 5587 5584 5582 5580
5586 5586 5587 5587 5587 5588 5588 5589 5589 5590 5591 5591 5592 5593 5593 5594 5595 5596 5597 5598 5599 5600 5602 5603 5604 5605 5606 5608 5609 5610 5611 5613 5614 5615 5616 5617 5618 5618 5619 5620 5621 5621 5622 5622 5622 5623 5623 5624 5624 5624 5624 5624 5624 5624 5624 5624 5624 5623 5623 5622 5622 5621 5620 5619 5618 5617 5615 5614 5613 5612 5610 5609 5607 5605 5603 5601 5599 5597 5595 5593 5590 5588 5586 5584 5581 5579 5577
5586 5586 5586 5587 5587 5587 5588 5588 5588 5589 5590 5590 5591 5591 5592 5593 5594 5594 5595 5597 5598 5599 5600 5601 5602 5603 5604 5605 5607 5608 5609 5610 5611 5612 5613 5613 5614 5614 5615 5616 5616 5617 5617 5618 5618 5619 5619 5619 5620 5620 5620 5620 5620 5620 5620 5620 5619 5619 5619 5618 5617 5617 5616 5615 5614 5613 5612 5610 5609 5608 5606 5605 5603 5601 5600 5598 5596 5594 5591 5589 5587 5585 5583 5581 5578 5576 5573
5585 5585 5586 5586 5586 5586 5587 5587 5587 5588 5588 5589 5589 5590 5591 5592 5592 5593 5594 5595 5596 5597 5597 5598 5599 5601 5602 5603 5604 5605 5606 5607 5608 5608 5609 5609 5610 5610 5611 5611 5612 5613 5613 5614 5615 5615 5615 5615 5615 5616 5616 5616 5616 5616 5616 5615 5615 5615 5614 5613 5612 5612 5611 5611 5610 5608 5607 5606 5605 5603 5602 5600 5599 5597 5596 5594 5592 5590 5588 5586 5584 5581 5579 5577 5575 5572 5569
5584 5584 5584 5585 5585 5585 5585 5586 5586 5587 5587 5588 5588 5589 5590 5590 5591 5591 5592 5593 5594 5594 5595 5596 5597 5598 5599 5600 5601 5602 5602 5603 5604 5604 5605 5606 5606 5607 5607 5608 5608 5609 5609 5610 5610 5611 5611 5611 5611 5611 5611 5611 5611 5611 5611 5611 5610 5610 5609 5608 5608 5607 5607 5606 5605 5604 5602 5601 5600 5598 5597 5596 5595 5593 5592 5590 5588 5586 5584 5582 5579 5577 5575 5573 5571 5568 5566
5582 5582 5583 5583 5584 5584 5584 5585 5585 5585 5586 5586 5587 5587 5588 5588 5589 5590 5590 5591 5592 5592 5593 5594 5594 5595 5596 5597 5598 5598 5599 5600 5600 5601 5601 5602 5602 5603 5603 5604 5605 5605 5605 5606 5606 5606 5606 5607 5607 5607 5607 5607 5607 5607 5606 5606 5606 5605 5605 5604 5603 5603 5602 5601 5600 5599 5598 5596 5595 5594 5592 5591 5590 5588 5587 5585 5583 5581 5579 5577 5575 5573 5571 5568 5566 5564 5562
5580 5580 5581 5582 5582 5583 5583 5583 5584 5584 5584 5585 5585 5586 5586 5587 5587 5588 5588 5589 5589 5590 5590 5591 5592 5592 5593 5594 5594 5595 5596 5597 5597 5597 5598 5598 5599 5599 5600 5600 5601 5601 5601 5602 5602 5602 5602 5602 5602 5602 5602 5602 5602 5602 5602 5601 5601 5601 5600 5599 5598 5598 5597 5596 5595 5594 5593 5591 5590 5589 5587 5586 5584 5583 5582 5580 5578 5576 5574 5572 5570 5568 5566 5564 5562 5560 5558